| time (UTC) | temp F | wind direction | speed MPH | gust MPH | rain 1hr in | rain 24hr in | rain mn in | humidity % | barometer mb |
| 20260509144525 | 69 | 0.0 | 3.0 | 0.00 | 0.00 | 0.00 | 60 | 1009.7 | |
| 20260509143525 | 68 | 0.0 | 2.0 | 0.00 | 0.00 | 0.00 | 61 | 1009.8 | |
| 20260509142524 | 67 | 68 | 1.0 | 4.0 | 0.00 | 0.00 | 0.00 | 61 | 1009.9 |
| 20260509141525 | 66 | 0.0 | 3.0 | 0.00 | 0.00 | 0.00 | 63 | 1009.9 | |
| 20260509140524 | 65 | 0.0 | 4.0 | 0.00 | 0.00 | 0.00 | 65 | 1010.0 | |
| 20260509135525 | 65 | 0.0 | 4.0 | 0.00 | 0.00 | 0.00 | 65 | 1010.1 | |
| 20260509134525 | 64 | 68 | 1.0 | 4.0 | 0.00 | 0.00 | 0.00 | 66 | 1010.3 |
| 20260509133524 | 63 | 0.0 | 4.0 | 0.00 | 0.00 | 0.00 | 69 | 1010.4 | |
| 20260509132525 | 62 | 68 | 1.0 | 5.0 | 0.00 | 0.00 | 0.00 | 71 | 1010.4 |
| 20260509131544 | 61 | 68 | 1.0 | 6.0 | 0.00 | 0.00 | 0.00 | 73 | 1010.4 |
| 20260509130527 | 60 | 68 | 1.0 | 3.0 | 0.00 | 0.00 | 0.00 | 74 | 1010.5 |
| 20260509125526 | 59 | 0.0 | 1.0 | 0.00 | 0.00 | 0.00 | 76 | 1010.5 | |
| 20260509124526 | 58 | 0.0 | 2.0 | 0.00 | 0.00 | 0.00 | 77 | 1010.6 | |
| 20260509123526 | 57 | 68 | 1.0 | 5.0 | 0.00 | 0.00 | 0.00 | 77 | 1010.6 |
| 20260509122531 | 57 | 68 | 1.0 | 5.0 | 0.00 | 0.00 | 0.00 | 77 | 1010.5 |
| 20260509121527 | 56 | 68 | 1.0 | 5.0 | 0.00 | 0.00 | 0.00 | 78 | 1010.5 |
| 20260509120526 | 56 | 68 | 1.0 | 5.0 | 0.00 | 0.00 | 0.00 | 79 | 1010.5 |
| 20260509115530 | 55 | 0.0 | 3.0 | 0.00 | 0.00 | 0.00 | 79 | 1010.6 | |
| 20260509114546 | 55 | 68 | 1.0 | 3.0 | 0.00 | 0.00 | 0.00 | 80 | 1010.6 |
| 20260509113527 | 54 | 0.0 | 2.0 | 0.00 | 0.00 | 0.00 | 81 | 1010.5 | |
| 20260509112526 | 53 | 0.0 | 1.0 | 0.00 | 0.00 | 0.00 | 81 | 1010.6 | |
| 20260509111526 | 53 | 0.0 | 1.0 | 0.00 | 0.00 | 0.00 | 80 | 1010.6 | |
| 20260509110527 | 53 | 0.0 | 4.0 | 0.00 | 0.00 | 0.00 | 80 | 1010.5 | |
| 20260509105527 | 53 | 0.0 | 0.0 | 0.00 | 0.00 | 0.00 | 79 | 1010.4 | |
| 20260509105104 | 0 | 0.0 | 0.0 | 0.00 | 0.00 | 0.00 | |||
| 20260509104025 | 0 | 0.0 | 0.0 | 0.00 | 0.00 | 0.00 | |||
| 20260509103102 | 0 | 0.0 | 0.0 | 0.00 | 0.00 | 0.00 | |||
| 20260509102541 | 0 | 0.0 | 0.0 | 0.00 | 0.00 | 0.00 | |||
| 20260509101526 | 0 | 0.0 | 0.0 | 0.00 | 0.00 | 0.00 | |||
| 20260509100559 | 0 | 0.0 | 0.0 | 0.00 | 0.00 | 0.00 | |||
| 20260509100039 | 0 | 0.0 | 0.0 | 0.00 | 0.00 | 0.00 | |||
| 20260509095026 | 0 | 0.0 | 0.0 | 0.00 | 0.00 | 0.00 | |||
| 20260509094106 | 0 | 0.0 | 0.0 | 0.00 | 0.00 | 0.00 | |||
| 20260509093603 | 0 | 0.0 | 0.0 | 0.00 | 0.00 | 0.00 | |||
| 20260509092525 | 0 | 0.0 | 0.0 | 0.00 | 0.00 | 0.00 | |||
| 20260509091611 | 0 | 0.0 | 0.0 | 0.00 | 0.00 | 0.00 | |||
| 20260509091051 | 0 | 0.0 | 0.0 | 0.00 | 0.00 | 0.00 | |||
| 20260509090024 | 0 | 0.0 | 0.0 | 0.00 | 0.00 | 0.00 | |||
| 20260509085035 | 0 | 0.0 | 0.0 | 0.00 | 0.00 | 0.00 | |||
| 20260509084534 | 0 | 0.0 | 0.0 | 0.00 | 0.00 | 0.00 | |||
| 20260509083525 | 0 | 0.0 | 0.0 | 0.00 | 0.00 | 0.00 | |||
| 20260509082531 | 0 | 0.0 | 0.0 | 0.00 | 0.00 | 0.00 | |||
| 20260509082109 | 0 | 0.0 | 0.0 | 0.00 | 0.00 | 0.00 | 73 | ||
| 20260509081026 | 53 | 0.0 | 0.0 | 0.00 | 0.00 | 0.00 | 73 | 1010.8 | |
| 20260509080026 | 54 | 0.0 | 0.0 | 0.00 | 0.00 | 0.00 | 72 | 1010.9 | |
| 20260509075027 | 54 | 0.0 | 0.0 | 0.00 | 0.00 | 0.00 | 73 | 1010.9 | |
| 20260509074026 | 54 | 0.0 | 0.0 | 0.00 | 0.00 | 0.00 | 72 | 1011.0 | |
| 20260509073026 | 53 | 0.0 | 1.0 | 0.00 | 0.00 | 0.00 | 73 | 1011.1 | |
| 20260509072026 | 53 | 0.0 | 1.0 | 0.00 | 0.00 | 0.00 | 73 | 1011.1 | |
| 20260509071026 | 51 | 0.0 | 1.0 | 0.00 | 0.00 | 0.00 | 75 | 1011.1 | |
| 20260509070026 | 51 | 0.0 | 1.0 | 0.00 | 0.00 | 0.00 | 76 | 1011.2 | |
| 20260509065026 | 51 | 0.0 | 0.0 | 0.00 | 0.00 | 0.00 | 76 | 1011.3 | |
| 20260509064025 | 50 | 0.0 | 0.0 | 0.00 | 0.00 | 0.00 | 75 | 1011.4 | |
| 20260509063025 | 50 | 0.0 | 0.0 | 0.00 | 0.00 | 0.00 | 76 | 1011.3 | |
| 20260509062025 | 50 | 0.0 | 1.0 | 0.00 | 0.00 | 0.00 | 76 | 1011.4 | |
| 20260509061026 | 50 | 0.0 | 0.0 | 0.00 | 0.00 | 0.00 | 75 | 1011.4 | |
| 20260509060026 | 50 | 0.0 | 0.0 | 0.00 | 0.00 | 0.00 | 75 | 1011.4 | |
| 20260509055030 | 50 | 0.0 | 0.0 | 0.00 | 0.00 | 0.00 | 74 | 1011.3 | |
| 20260509054026 | 50 | 0.0 | 0.0 | 0.00 | 0.00 | 0.00 | 73 | 1011.2 | |
| 20260509053025 | 50 | 0.0 | 0.0 | 0.00 | 0.00 | 0.00 | 73 | 1011.2 | |
| 20260509052026 | 51 | 0.0 | 0.0 | 0.00 | 0.00 | 0.00 | 72 | 1011.2 | |
| 20260509051026 | 51 | 0.0 | 0.0 | 0.00 | 0.00 | 0.00 | 72 | 1011.3 | |
| 20260509050026 | 51 | 0.0 | 0.0 | 0.00 | 0.00 | 0.00 | 71 | 1011.3 | |
| 20260509045025 | 51 | 0.0 | 0.0 | 0.00 | 0.00 | 0.00 | 71 | 1011.2 | |
| 20260509044026 | 52 | 0.0 | 0.0 | 0.00 | 0.00 | 0.00 | 70 | 1011.2 | |
| 20260509043026 | 52 | 0.0 | 0.0 | 0.00 | 0.00 | 0.00 | 69 | 1011.2 | |
| 20260509042046 | 52 | 0.0 | 0.0 | 0.00 | 0.00 | 0.00 | 69 | 1011.2 | |
| 20260509041025 | 53 | 0.0 | 0.0 | 0.00 | 0.00 | 0.00 | 68 | 1011.3 | |
| 20260509040032 | 53 | 0.0 | 0.0 | 0.00 | 0.00 | 0.00 | 67 | 1011.4 | |
| 20260509035026 | 53 | 0.0 | 0.0 | 0.00 | 0.00 | 0.00 | 66 | 1011.5 | |
| 20260509034025 | 54 | 0.0 | 0.0 | 0.00 | 0.00 | 0.00 | 66 | 1011.6 | |
| 20260509033026 | 54 | 0.0 | 0.0 | 0.00 | 0.00 | 0.00 | 64 | 1011.7 | |
| 20260509032025 | 54 | 0.0 | 0.0 | 0.00 | 0.00 | 0.00 | 64 | 1011.6 | |
| 20260509031025 | 54 | 0.0 | 0.0 | 0.00 | 0.00 | 0.00 | 63 | 1011.6 | |
| 20260509030026 | 55 | 0.0 | 0.0 | 0.00 | 0.00 | 0.00 | 63 | 1011.5 | |
| 20260509025025 | 55 | 0.0 | 0.0 | 0.00 | 0.00 | 0.00 | 62 | 1011.6 | |
| 20260509024026 | 55 | 0.0 | 0.0 | 0.00 | 0.00 | 0.00 | 62 | 1011.7 | |
| 20260509023025 | 56 | 0.0 | 0.0 | 0.00 | 0.00 | 0.00 | 61 | 1011.6 | |
| 20260509022025 | 56 | 0.0 | 0.0 | 0.00 | 0.00 | 0.00 | 60 | 1011.5 | |
| 20260509021026 | 56 | 0.0 | 0.0 | 0.00 | 0.00 | 0.00 | 60 | 1011.4 | |
| 20260509020025 | 56 | 0.0 | 0.0 | 0.00 | 0.00 | 0.00 | 59 | 1011.4 | |
| 20260509015025 | 57 | 0.0 | 0.0 | 0.00 | 0.00 | 0.00 | 57 | 1011.3 | |
| 20260509014026 | 57 | 0.0 | 0.0 | 0.00 | 0.00 | 0.00 | 57 | 1011.3 | |
| 20260509013046 | 58 | 0.0 | 0.0 | 0.00 | 0.00 | 0.00 | 55 | 1011.2 | |
| 20260509012026 | 59 | 0.0 | 0.0 | 0.00 | 0.00 | 0.00 | 54 | 1011.2 | |
| 20260509011025 | 60 | 0.0 | 0.0 | 0.00 | 0.00 | 0.00 | 52 | 1011.1 | |
| 20260509010025 | 60 | 0.0 | 1.0 | 0.00 | 0.00 | 0.00 | 51 | 1010.9 | |
| 20260509005045 | 61 | 0.0 | 0.0 | 0.00 | 0.00 | 0.00 | 49 | 1010.9 | |
| 20260509004026 | 63 | 0.0 | 0.0 | 0.00 | 0.00 | 0.00 | 49 | 1011.0 | |
| 20260509003026 | 64 | 0.0 | 0.0 | 0.00 | 0.00 | 0.00 | 47 | 1010.9 | |
| 20260509002025 | 65 | 0.0 | 0.0 | 0.00 | 0.00 | 0.00 | 45 | 1010.8 | |
| 20260509001026 | 65 | 0.0 | 1.0 | 0.00 | 0.00 | 0.00 | 44 | 1010.7 | |
| 20260509000045 | 66 | 0.0 | 1.0 | 0.00 | 0.00 | 0.00 | 41 | 1010.6 | |
| 20260508235025 | 67 | 0.0 | 1.0 | 0.00 | 0.00 | 0.00 | 41 | 1010.5 | |
| 20260508234026 | 68 | 0.0 | 1.0 | 0.00 | 0.00 | 0.00 | 40 | 1010.5 | |
| 20260508233045 | 68 | 0.0 | 2.0 | 0.00 | 0.00 | 0.00 | 39 | 1010.4 | |
| 20260508232045 | 69 | 0.0 | 2.0 | 0.00 | 0.00 | 0.00 | 38 | 1010.3 | |
| 20260508231106 | 69 | 68 | 1.0 | 6.0 | 0.00 | 0.00 | 0.00 | 39 | 1010.2 |
| 20260508230026 | 69 | 0.0 | 3.0 | 0.00 | 0.00 | 0.00 | 38 | 1010.1 | |
| 20260508225045 | 69 | 0.0 | 1.0 | 0.00 | 0.00 | 0.00 | 39 | 1010.2 | |
| 20260508224025 | 69 | 68 | 1.0 | 3.0 | 0.00 | 0.00 | 0.00 | 38 | 1010.2 |
| 20260508223025 | 70 | 0.0 | 1.0 | 0.00 | 0.00 | 0.00 | 39 | 1010.1 | |
| 20260508222026 | 70 | 0.0 | 4.0 | 0.00 | 0.00 | 0.00 | 37 | 1010.3 | |
| 20260508221025 | 71 | 68 | 1.0 | 6.0 | 0.00 | 0.00 | 0.00 | 37 | 1010.3 |
| 20260508220025 | 71 | 68 | 1.0 | 5.0 | 0.00 | 0.00 | 0.00 | 35 | 1010.3 |
| 20260508215025 | 72 | 68 | 1.0 | 5.0 | 0.00 | 0.00 | 0.00 | 35 | 1010.3 |
| 20260508214025 | 72 | 90 | 1.0 | 4.0 | 0.00 | 0.00 | 0.00 | 33 | 1010.3 |
| 20260508213025 | 72 | 0.0 | 2.0 | 0.00 | 0.00 | 0.00 | 34 | 1010.4 | |
| 20260508212045 | 72 | 0.0 | 3.0 | 0.00 | 0.00 | 0.00 | 35 | 1010.5 | |
| 20260508211025 | 72 | 68 | 1.0 | 4.0 | 0.00 | 0.00 | 0.00 | 34 | 1010.5 |
| 20260508210026 | 72 | 90 | 1.0 | 4.0 | 0.00 | 0.00 | 0.00 | 34 | 1010.5 |
| 20260508205025 | 72 | 0.0 | 1.0 | 0.00 | 0.00 | 0.00 | 36 | 1010.5 | |
| 20260508204025 | 73 | 0.0 | 2.0 | 0.00 | 0.00 | 0.00 | 36 | 1010.6 | |
| 20260508203025 | 73 | 90 | 1.0 | 3.0 | 0.00 | 0.00 | 0.00 | 37 | 1010.6 |
| 20260508202025 | 74 | 0.0 | 3.0 | 0.00 | 0.00 | 0.00 | 32 | 1010.8 | |
| 20260508201024 | 74 | 0.0 | 4.0 | 0.00 | 0.00 | 0.00 | 33 | 1010.9 | |
| 20260508200026 | 73 | 68 | 1.0 | 5.0 | 0.00 | 0.00 | 0.00 | 34 | 1011.0 |
| 20260508195025 | 74 | 90 | 1.0 | 5.0 | 0.00 | 0.00 | 0.00 | 33 | 1011.3 |
| 20260508194024 | 75 | 0.0 | 2.0 | 0.00 | 0.00 | 0.00 | 34 | 1011.2 | |
| 20260508193025 | 75 | 68 | 1.0 | 7.0 | 0.00 | 0.00 | 0.00 | 35 | 1011.3 |
| 20260508192025 | 75 | 68 | 1.0 | 6.0 | 0.00 | 0.00 | 0.00 | 34 | 1011.6 |
| 20260508191025 | 73 | 68 | 1.0 | 6.0 | 0.00 | 0.00 | 0.00 | 35 | 1011.7 |
| 20260508190025 | 74 | 0.0 | 2.0 | 0.00 | 0.00 | 0.00 | 34 | 1012.0 | |
| 20260508185026 | 74 | 90 | 1.0 | 5.0 | 0.00 | 0.00 | 0.00 | 37 | 1012.1 |
| 20260508184026 | 73 | 0.0 | 1.0 | 0.00 | 0.00 | 0.00 | 37 | 1012.3 | |
| 20260508183045 | 74 | 0.0 | 1.0 | 0.00 | 0.00 | 0.00 | 37 | 1012.3 | |
| 20260508182025 | 74 | 68 | 1.0 | 3.0 | 0.00 | 0.00 | 0.00 | 36 | 1012.4 |
| 20260508181024 | 73 | 0.0 | 1.0 | 0.00 | 0.00 | 0.00 | 36 | 1012.6 | |
| 20260508180025 | 71 | 68 | 1.0 | 4.0 | 0.00 | 0.00 | 0.00 | 38 | 1012.7 |
| 20260508175025 | 73 | 90 | 2.0 | 7.0 | 0.00 | 0.00 | 0.00 | 36 | 1012.9 |
| 20260508174046 | 74 | 0.0 | 1.0 | 0.00 | 0.00 | 0.00 | 36 | 1013.0 | |
| 20260508173025 | 74 | 0.0 | 1.0 | 0.00 | 0.00 | 0.00 | 37 | 1013.1 | |
| 20260508172025 | 73 | 0.0 | 1.0 | 0.00 | 0.00 | 0.00 | 36 | 1013.1 | |
| 20260508171126 | 72 | 0.0 | 3.0 | 0.00 | 0.00 | 0.00 | 41 | 1013.3 | |
| 20260508170024 | 72 | 68 | 1.0 | 5.0 | 0.00 | 0.00 | 0.00 | 41 | 1013.5 |
| 20260508165024 | 72 | 0.0 | 5.0 | 0.00 | 0.00 | 0.00 | 38 | 1013.5 | |
| 20260508164025 | 71 | 0.0 | 4.0 | 0.00 | 0.00 | 0.00 | 38 | 1013.8 | |
| 20260508163045 | 71 | 0.0 | 1.0 | 0.00 | 0.00 | 0.00 | 39 | 1013.9 | |
| 20260508162024 | 71 | 0.0 | 2.0 | 0.00 | 0.00 | 0.00 | 40 | 1014.2 | |
| 20260508161024 | 70 | 0.0 | 2.0 | 0.00 | 0.00 | 0.00 | 41 | 1014.2 | |
| 20260508160025 | 71 | 0.0 | 2.0 | 0.00 | 0.00 | 0.00 | 40 | 1014.4 | |
| 20260508155024 | 70 | 0.0 | 4.0 | 0.00 | 0.00 | 0.00 | 44 | 1014.4 | |
| 20260508154025 | 69 | 0.0 | 2.0 | 0.00 | 0.00 | 0.00 | 41 | 1014.4 | |
| 20260508153025 | 69 | 0.0 | 2.0 | 0.00 | 0.00 | 0.00 | 40 | 1014.5 | |
| 20260508152024 | 68 | 0.0 | 2.0 | 0.00 | 0.00 | 0.00 | 39 | 1014.6 | |
| 20260508151024 | 68 | 0.0 | 2.0 | 0.00 | 0.00 | 0.00 | 40 | 1014.7 | |
| 20260508150024 | 68 | 0.0 | 1.0 | 0.00 | 0.00 | 0.00 | 40 | 1014.7 | |
| 20260508145025 | 67 | 0.0 | 2.0 | 0.00 | 0.00 | 0.00 | 42 | 1014.9 |